Regional Weather Roundup
Issued by NWS

Home | Current Version | Previous Version | Text Only | Print | Product List | Glossary On
Versions: 1 2 3 4 5 6 7 8 9 10 11 12 13 14 15 16 17 18 19 20 21 22 23 24 25 26 27 28 29 30 31 32 33 34 35 36 37 38 39 40 41 42 43 44 45 46 47 48 49 50
000
ASUS43 KDTX 160610
RWRMI
MICHIGAN HOURLY REGIONAL WEATHER ROUNDUP
NATIONAL WEATHER SERVICE DETROIT/PONTIAC MI
200 AM EDT WED APR 16 2014

NOTE: "FAIR" INDICATES FEW OR NO CLOUDS BELOW 12,000 FEET WITH NO
SIGNIFICANT WEATHER AND/OR OBSTRUCTION TO VISIBILITY.

MIZ047>049-052>055-059>063-066>070-074>076-081>083-160700-
SOUTHEAST LOWER MICHIGAN

CITY           SKY/WX    TMP DP  RH WIND       PRES   REMARKS
ADRIAN         FAIR      23  13  65 CALM      30.26S
6HR MIN TEMP:  23; 6HR MAX TEMP:  31;

ALMA           FAIR      25  16  69 CALM      30.25R
ANN ARBOR      FAIR      19  15  84 CALM      30.25S
BAD AXE        FAIR      21  18  90 CALM      30.24R
6HR MIN TEMP:  20; 6HR MAX TEMP:  28;

CARO           FAIR      21  18  87 CALM      30.24S
DETROIT CITY   FAIR      26  15  63 CALM      30.26S
6HR MIN TEMP:  26; 6HR MAX TEMP:  32;

DETROIT        FAIR      27  13  55 CALM      30.26S
6HR MIN TEMP:  27; 6HR MAX TEMP:  31;

FLINT          FAIR      21  16  81 SW3       30.24F
6HR MIN TEMP:  20; 6HR MAX TEMP:  31;

GROSSE ILE     FAIR      27  19  74 CALM      30.25S
HILLSDALE      FAIR      21  15  76 CALM      30.23S
6HR MIN TEMP:  21; 6HR MAX TEMP:  30;

HOWELL         FAIR      22  13  66 CALM      30.23S
6HR MIN TEMP:  22; 6HR MAX TEMP:  29;


CITY           SKY/WX    TMP DP  RH WIND       PRES   REMARKS
JACKSON        FAIR      21  13  71 CALM      30.24S
6HR MIN TEMP:  21; 6HR MAX TEMP:  30;

LAMBERTVILLE   FAIR      27  18  69 CALM      30.27R
LANSING        FAIR      24  13  62 CALM      30.25S
6HR MIN TEMP:  24; 6HR MAX TEMP:  30;

LAPEER         FAIR      20  17  88 CALM      30.24S
6HR MIN TEMP:  20; 6HR MAX TEMP:  29;

MASON          FAIR      23  17  78 CALM      30.24S
MONROE         FAIR      25  21  86 CALM      30.25S
MT. CLEMENS    FAIR      24  13  62 S1        30.24S
6HR MIN TEMP:  22; 6HR MAX TEMP:  31;

PONTIAC        FAIR      21  13  71 CALM      30.22S
6HR MIN TEMP:  21; 6HR MAX TEMP:  29;

PORT HOPE        N/A     23  15  71 SW3       30.22S
6HR MIN TEMP:  23; 6HR MAX TEMP:  29;

PORT HURON     FAIR      19  18  93 CALM      30.26S
TRI CITIES     FAIR      25  14  63 W6        30.25R WCI  18
6HR MIN TEMP:  25; 6HR MAX TEMP:  31;

TROY           FAIR      26  14  61 CALM      30.26S
SAGINAW HB     FAIR      28  14  54 W5        30.24S WCI  23
YPSILANTI      FAIR      25  12  58 CALM      30.26S
6HR MIN TEMP:  25; 6HR MAX TEMP:  33;

$$
MIZ043>046-050>051-056>058-064>065-071>073-077>080-160700-
SOUTHWEST LOWER MICHIGAN

CITY           SKY/WX    TMP DP  RH WIND       PRES   REMARKS
BATTLE CREEK   FAIR      24  14  65 CALM      30.24S
6HR MIN TEMP:  22; 6HR MAX TEMP:  30;

BENTON HARBOR  FAIR      24  15  68 E5        30.25R WCI  18
6HR MIN TEMP:  23; 6HR MAX TEMP:  29;

BIG RAPIDS     FAIR      24  16  72 CALM      30.21S
6HR MIN TEMP:  24; 6HR MAX TEMP:  29;

COLDWATER      FAIR      23  18  80 CALM      30.24S
FREMONT        FAIR      22  17  78 CALM      30.23S
HOLLAND        FAIR      25  16  68 SE5       30.25R WCI  19
6HR MIN TEMP:  25; 6HR MAX TEMP:  31;

GRAND RAPIDS   FAIR      25  16  68 CALM      30.25R
6HR MIN TEMP:  25; 6HR MAX TEMP:  32;

IONIA          FAIR      24  17  73 SW5       30.24S WCI  18
KALAMAZOO      FAIR      25  15  66 CALM      30.24S
6HR MIN TEMP:  23; 6HR MAX TEMP:  30;

LUDINGTON      CLOUDY    29  23  76 S5        30.23R WCI  24
6HR MIN TEMP:  27; 6HR MAX TEMP:  29;

MARSHALL       FAIR      21  14  73 S8        30.24R WCI  12
MOUNT PLEASANT FAIR      26  16  66 CALM      30.23S
6HR MIN TEMP:  25; 6HR MAX TEMP:  30;

MUSKEGON       FAIR      24  16  71 SE3       30.25R
6HR MIN TEMP:  24; 6HR MAX TEMP:  29;

SOUTH HAVEN    FAIR      25  15  68 E3        30.25R
$$
MIZ016>042-160700-
NORTHERN LOWER MICHIGAN

CITY           SKY/WX    TMP DP  RH WIND       PRES   REMARKS
ALPENA         CLOUDY    22  16  78 CALM      30.23R
6HR MIN TEMP:  15; 6HR MAX TEMP:  24;

BEAVER ISLAND  FAIR     N/A N/A N/A CALM      30.22S
BELLAIRE       FAIR      26  21  83 CALM      30.23R
6HR MIN TEMP:  25; 6HR MAX TEMP:  28;

CADILLAC       FAIR      20  15  82 SW5       30.17S WCI  13
CHARLEVOIX     FAIR      17  16  95 CALM      30.25S
6HR MIN TEMP:  17; 6HR MAX TEMP:  27;

FRANKFORT      FAIR      28  16  59 CALM      30.21R
GAYLORD        CLOUDY    17  15  92 CALM      30.18R
6HR MIN TEMP:  16; 6HR MAX TEMP:  23; 6HR PCP:  0.01;

GRAYLING       MOCLDY    17  15  90 CALM      30.20R
6HR MIN TEMP:  13; 6HR MAX TEMP:  26;

HARBOR SPRINGS FAIR      19  17  92 CALM      30.22R
HOUGHTON LAKE  FAIR      22  15  75 W5        30.20R WCI  16
6HR MIN TEMP:  21; 6HR MAX TEMP:  26;

MANISTEE       FAIR      25  18  74 S3        30.23R
OSCODA         FAIR      15  11  84 CALM      30.23S
PELLSTON       FOG        8   5  87 CALM      30.23R VSB 1/4
6HR MIN TEMP:   8; 6HR MAX TEMP:  23; 6HR PCP:  0.02;

ROGERS CITY    FAIR      19  18  93 SW3       30.24R
TRAVERSE CITY  MOCLDY    24  21  88 CALM      30.21S
6HR MIN TEMP:  24; 6HR MAX TEMP:  29; 6HR PCP: TRACE;

$$
MIZ007>008-015-160700-
EASTERN UPPER MICHIGAN

CITY           SKY/WX    TMP DP  RH WIND       PRES   REMARKS
KINROSS        FAIR       9   9 100 CALM      30.21R
6HR MIN TEMP:   9; 6HR MAX TEMP:  19;

MACKINAC ISLAN FAIR      15  11  85 CALM      30.22R
6HR MIN TEMP:  15; 6HR MAX TEMP:  24;

NEWBERRY       FAIR       3   1  90 SW5       30.20R WCI  -7
6HR MIN TEMP:   1; 6HR MAX TEMP:  18;

S. S. MARIE    FAIR      14   8  77 CALM      30.20R
6HR MIN TEMP:  13; 6HR MAX TEMP:  19;

MUNISING         N/A     11   5  77 S5        30.21R WCI   3
6HR MIN TEMP:  11; 6HR MAX TEMP:  22;

$$
MIZ004>006-011>014-085-160700-
CENTRAL UPPER MICHIGAN

CITY           SKY/WX    TMP DP  RH WIND       PRES   REMARKS
MANISTIQUE     FAIR       9   6  88 CALM      30.21R
ESCANABA       FAIR      12  10  92 CALM      30.21R
6HR MIN TEMP:  12; 6HR MAX TEMP:  25; 6HR PCP:  0.01;

MENOMINEE      FAIR      21  18  86 CALM      30.19R
6HR MIN TEMP:  21; 6HR MAX TEMP:  30;

SAWYER-GWINN   FAIR       4   1  86 CALM      30.17R
$$
MIZ001>003-009>011-084-160700-
WESTERN UPPER MICHIGAN

CITY           SKY/WX    TMP DP  RH WIND       PRES   REMARKS
IRON MOUNTAIN  FAIR      10   5  80 N3        30.16R
6HR MIN TEMP:  10; 6HR MAX TEMP:  27;

HOUGHTON       FAIR      13  -2  51 CALM      30.13R
6HR MIN TEMP:  11; 6HR MAX TEMP:  22;

COPPER HARBOR    N/A     20   4  50 CALM      30.16R
6HR MIN TEMP:  19; 6HR MAX TEMP:  24;

IRONWOOD       FAIR      14   7  73 CALM      30.10S
6HR MIN TEMP:  14; 6HR MAX TEMP:  27;

$$

ABBREVIATIONS USED IN REMARKS
   TC - TEMPERATURE IN CELSIUS
  WCI - WIND CHILL INDEX
   HX - HEAT INDEX
  VSB - VISIBILITY




USA.gov is the U.S. government's official web portal to all federal, state and local government web resources and services.